[keps] orb10028.amsat

Ray Hoad ray.hoad at mypbmail.com
Thu Jan 28 20:34:32 PST 2010


SB KEPS @ AMSAT  $ORB10028.O
Orbital Elements  10028.OSCAR

HR AMSAT ORBITAL ELEMENTS FOR OSCAR SATELLITES
FROM WA5QGD FORT WORTH,TX January 28, 2010
Send Subscribe/unsubscribe to KEPS at 
http://www.amsat.org/mailman/listinfo/keps
BID: ORB10028.O
TO ALL RADIO AMATEURS BT

Satellite: AO-07
Catalog number: 07530
Epoch time:      10027.66381990
Element set:    0691
Inclination:      101.4121 deg
RA of node:       048.9412 deg
Eccentricity:    0.0012004
Arg of perigee:   188.8786 deg
Mean anomaly:     171.2068 deg
Mean motion:   12.53577472 rev/day
Decay rate:       -2.7e-07 rev/day^2
Epoch rev:           61084
Checksum:              289

Satellite: FO-29
Catalog number: 24278
Epoch time:      10028.63161556
Element set:     232
Inclination:      098.5235 deg
RA of node:       236.9937 deg
Eccentricity:    0.0351133
Arg of perigee:   125.7991 deg
Mean anomaly:     237.6319 deg
Mean motion:   13.52947152 rev/day
Decay rate:       -2.2e-07 rev/day^2
Epoch rev:           66423
Checksum:              313

Satellite: SO-33
Catalog number: 25509
Epoch time:      10028.75033867
Element set:     638
Inclination:      031.4298 deg
RA of node:       217.0252 deg
Eccentricity:    0.0354186
Arg of perigee:   150.8244 deg
Mean anomaly:     211.2850 deg
Mean motion:   14.28283266 rev/day
Decay rate:       3.25e-06 rev/day^2
Epoch rev:           58810
Checksum:              294

Satellite: RS-22
Catalog number: 27939
Epoch time:      10028.57059667
Element set:     998
Inclination:      097.9133 deg
RA of node:       259.8071 deg
Eccentricity:    0.0014043
Arg of perigee:   137.2453 deg
Mean anomaly:     222.9856 deg
Mean motion:   14.63376686 rev/day
Decay rate:       1.11e-06 rev/day^2
Epoch rev:           33853
Checksum:              336

Satellite: VO-52
Catalog number: 28650
Epoch time:      10027.80464366
Element set:    0421
Inclination:      097.7133 deg
RA of node:       086.5844 deg
Eccentricity:    0.0027346
Arg of perigee:   018.2933 deg
Mean anomaly:     341.9244 deg
Mean motion:   14.81674687 rev/day
Decay rate:       4.22e-06 rev/day^2
Epoch rev:           25590
Checksum:              313

Satellite: SO-67
Catalog number: 35870
Epoch time:      10028.20863755
Element set:     393
Inclination:      097.3535 deg
RA of node:       080.6678 deg
Eccentricity:    0.0011569
Arg of perigee:   180.8852 deg
Mean anomaly:     249.3848 deg
Mean motion:   15.22851255 rev/day
Decay rate:       -2.4e-07 rev/day^2
Epoch rev:            2016
Checksum:              320

Satellite: HO-68
Catalog number: 36122
Epoch time:      10028.24111825
Element set:     120
Inclination:      100.4904 deg
RA of node:       089.9827 deg
Eccentricity:    0.0007278
Arg of perigee:   295.9666 deg
Mean anomaly:     064.0683 deg
Mean motion:   13.16279814 rev/day
Decay rate:       -4.5e-07 rev/day^2
Epoch rev:             580
Checksum:              297

/EX
SB KEPS @ AMSAT  $ORB10028.D
Orbital Elements  10028.MICROS

HR AMSAT ORBITAL ELEMENTS FOR THE MICROSATS
FROM WA5QGD FORT WORTH,TX January 28, 2010
Send Subscribe/unsubscribe to KEPS at 
http://www.amsat.org/mailman/listinfo/keps
BID: ORB10028.D
TO ALL RADIO AMATEURS BT

Satellite: UO-11
Catalog number: 14781
Epoch time:      10027.71435420
Element set:     160
Inclination:      098.0768 deg
RA of node:       078.8877 deg
Eccentricity:    0.0008806
Arg of perigee:   339.1780 deg
Mean anomaly:     020.9074 deg
Mean motion:   14.79764315 rev/day
Decay rate:       3.21e-06 rev/day^2
Epoch rev:           39103
Checksum:              303

Satellite: AO-16
Catalog number: 20439
Epoch time:      10028.63915265
Element set:     808
Inclination:      098.3131 deg
RA of node:       352.1787 deg
Eccentricity:    0.0010250
Arg of perigee:   217.7078 deg
Mean anomaly:     142.3381 deg
Mean motion:   14.31846569 rev/day
Decay rate:        3.2e-07 rev/day^2
Epoch rev:            4541
Checksum:              286

Satellite: LO-19
Catalog number: 20442
Epoch time:      10028.58952484
Element set:     719
Inclination:      098.2741 deg
RA of node:       358.5000 deg
Eccentricity:    0.0011348
Arg of perigee:   212.6406 deg
Mean anomaly:     147.4061 deg
Mean motion:   14.32079297 rev/day
Decay rate:       -2.5e-07 rev/day^2
Epoch rev:            4557
Checksum:              292

Satellite: AO-27
Catalog number: 22825
Epoch time:      10027.79361939
Element set:     443
Inclination:      098.4698 deg
RA of node:       339.5015 deg
Eccentricity:    0.0007862
Arg of perigee:   327.8500 deg
Mean anomaly:     032.2196 deg
Mean motion:   14.29285059 rev/day
Decay rate:        7.5e-07 rev/day^2
Epoch rev:           85199
Checksum:              337

Satellite: IO-26
Catalog number: 22826
Epoch time:      10027.81411495
Element set:     177
Inclination:      098.4624 deg
RA of node:       340.1776 deg
Eccentricity:    0.0008441
Arg of perigee:   323.1748 deg
Mean anomaly:     036.8848 deg
Mean motion:   14.29538956 rev/day
Decay rate:        2.9e-07 rev/day^2
Epoch rev:           85210
Checksum:              319

Satellite: GO-32
Catalog number: 25397
Epoch time:      10027.84123431
Element set:      98
Inclination:      098.3172 deg
RA of node:       043.0027 deg
Eccentricity:    0.0001008
Arg of perigee:   004.7754 deg
Mean anomaly:     355.3420 deg
Mean motion:   14.23170554 rev/day
Decay rate:        4.4e-07 rev/day^2
Epoch rev:           60008
Checksum:              253

Satellite: NO-44
Catalog number: 26931
Epoch time:      10027.72248433
Element set:    0374
Inclination:      067.0498 deg
RA of node:       205.8671 deg
Eccentricity:    0.0006724
Arg of perigee:   265.3986 deg
Mean anomaly:     094.6353 deg
Mean motion:   14.29580133 rev/day
Decay rate:     -.00000000 rev/day^2
Epoch rev:           43467
Checksum:              301

Satellite: SO-50
Catalog number: 27607
Epoch time:      10028.55357261
Element set:      89
Inclination:      064.5580 deg
RA of node:       060.6231 deg
Eccentricity:    0.0040808
Arg of perigee:   140.2032 deg
Mean anomaly:     220.2076 deg
Mean motion:   14.71493313 rev/day
Decay rate:       -1.3e-07 rev/day^2
Epoch rev:           38183
Checksum:              261

Satellite: CO-55
Catalog number: 27844
Epoch time:      10027.59184184
Element set:    0767
Inclination:      098.7120 deg
RA of node:       038.5732 deg
Eccentricity:    0.0009287
Arg of perigee:   214.0771 deg
Mean anomaly:     145.9812 deg
Mean motion:   14.20680137 rev/day
Decay rate:        1.7e-07 rev/day^2
Epoch rev:           34112
Checksum:              300

Satellite: CO-57
Catalog number: 27848
Epoch time:      10028.51676322
Element set:     718
Inclination:      098.7172 deg
RA of node:       038.5592 deg
Eccentricity:    0.0009219
Arg of perigee:   214.2185 deg
Mean anomaly:     145.8399 deg
Mean motion:   14.20476630 rev/day
Decay rate:        7.0e-08 rev/day^2
Epoch rev:           34121
Checksum:              312

Satellite: AO-51
Catalog number: 28375
Epoch time:      10027.57713359
Element set:    0590
Inclination:      098.0548 deg
RA of node:       029.1313 deg
Eccentricity:    0.0083586
Arg of perigee:   163.4352 deg
Mean anomaly:     196.9603 deg
Mean motion:   14.40666722 rev/day
Decay rate:        9.0e-08 rev/day^2
Epoch rev:           29326
Checksum:              317

Satellite: CO-56
Catalog number: 28941
Epoch time:      09297.68475575
Element set:     556
Inclination:      098.0955 deg
RA of node:       138.9518 deg
Eccentricity:    0.0011688
Arg of perigee:   319.8691 deg
Mean anomaly:     040.7485 deg
Mean motion:   16.46998778 rev/day
Decay rate:  1.4491492e-01 rev/day^2
Epoch rev:           20790
Checksum:              407

Satellite: GENESAT1
Catalog number: 29655
Epoch time:      10028.86576959
Element set:     927
Inclination:      040.0198 deg
RA of node:       202.9135 deg
Eccentricity:    0.0004943
Arg of perigee:   011.1715 deg
Mean anomaly:     348.9213 deg
Mean motion:   15.73083987 rev/day
Decay rate:     2.7706e-04 rev/day^2
Epoch rev:           17792
Checksum:              328

Satellite: CP3
Catalog number: 31129
Epoch time:      10027.86578362
Element set:    0493
Inclination:      097.9613 deg
RA of node:       074.8180 deg
Eccentricity:    0.0101448
Arg of perigee:   309.4085 deg
Mean anomaly:     049.8137 deg
Mean motion:   14.52203425 rev/day
Decay rate:        5.7e-07 rev/day^2
Epoch rev:           14749
Checksum:              307

Satellite: CO-65
Catalog number: 32785
Epoch time:      10027.28701970
Element set:    0589
Inclination:      097.9146 deg
RA of node:       094.0481 deg
Eccentricity:    0.0015438
Arg of perigee:   027.1276 deg
Mean anomaly:     333.0739 deg
Mean motion:   14.81575077 rev/day
Decay rate:       3.75e-06 rev/day^2
Epoch rev:           09462
Checksum:              329

Satellite: KKS-1
Catalog number: 33493
Epoch time:      10028.79746189
Element set:     159
Inclination:      098.0708 deg
RA of node:       147.2541 deg
Eccentricity:    0.0019139
Arg of perigee:   230.0463 deg
Mean anomaly:     129.9066 deg
Mean motion:   14.80832712 rev/day
Decay rate:       3.86e-06 rev/day^2
Epoch rev:            5485
Checksum:              315

Satellite: SOHLA-1
Catalog number: 33496
Epoch time:      10028.77641441
Element set:      11
Inclination:      098.0467 deg
RA of node:       139.7618 deg
Eccentricity:    0.0005568
Arg of perigee:   289.8317 deg
Mean anomaly:     070.2297 deg
Mean motion:   14.69465893 rev/day
Decay rate:        6.9e-07 rev/day^2
Epoch rev:            5440
Checksum:              325

/EX
SB KEPS @ AMSAT  $ORB10028.W
Orbital Elements  10028.WEATHER

HR AMSAT ORBITAL ELEMENTS FOR WEATHER SATELLITES
FROM WA5QGD FORT WORTH,TX January 28, 2010
Send Subscribe/unsubscribe to KEPS at 
http://www.amsat.org/mailman/listinfo/keps
BID: ORB10028.W
TO ALL RADIO AMATEURS BT

